owner,sensor,date,latitude,longitude,vertical_datum,sea_water_temperature,qcFlag 
TABS,ioos:station:wmo:42044:1,1998-10-01T00:00:00Z,26.1914,-97.0507,-2.0,30.72,11111222 
TABS,ioos:station:wmo:42044:1,1998-10-15T00:00:00Z,26.1914,-97.0507,-2.0,30.72,11111222 
TABS,ioos:station:wmo:42044:1,1998-10-15T00:30:00Z,26.1914,-97.0507,-2.0,27.74,11111222 
TABS,ioos:station:wmo:42044:1,1998-10-15T01:00:00Z,26.1914,-97.0507,-2.0,27.7,11111222 
TABS,ioos:station:wmo:42044:1,1998-10-15T01:30:00Z,26.1914,-97.0507,-2.0,27.65,11111222 
TABS,ioos:station:wmo:42044:1,1998-10-15T02:00:00Z,26.1914,-97.0507,-2.0,27.62,11111222 
TABS,ioos:station:wmo:42044:1,1998-10-15T02:30:00Z,26.1914,-97.0507,-2.0,27.61,11111222 
TABS,ioos:station:wmo:42044:1,1998-10-15T03:00:00Z,26.1914,-97.0507,-2.0,27.59,11111222 
TABS,ioos:station:wmo:42044:1,1998-10-15T04:30:00Z,26.1914,-97.0507,-2.0,27.54,11111222 
TABS,ioos:station:wmo:42044:1,1998-10-15T05:00:00Z,26.1914,-97.0507,-2.0,27.54,11111222 
TABS,ioos:station:wmo:42044:1,1998-10-15T05:30:00Z,26.1914,-97.0507,-2.0,27.53,11111222 
TABS,ioos:station:wmo:42044:1,1998-10-15T06:00:00Z,26.1914,-97.0507,-2.0,27.52,11111222 
TABS,ioos:station:wmo:42044:1,1998-10-15T06:30:00Z,26.1914,-97.0507,-2.0,27.51,11111222 
TABS,ioos:station:wmo:42044:1,1998-10-15T07:00:00Z,26.1914,-97.0507,-2.0,27.51,11111222 
TABS,ioos:station:wmo:42044:1,1998-10-15T07:30:00Z,26.1914,-97.0507,-2.0,27.5,11111222 
TABS,ioos:station:wmo:42044:1,1998-10-15T08:00:00Z,26.1914,-97.0507,-2.0,27.49,11111222 
TABS,ioos:station:wmo:42044:1,1998-10-15T08:30:00Z,26.1914,-97.0507,-2.0,27.49,11111222 
TABS,ioos:station:wmo:42044:1,1998-10-15T09:00:00Z,26.1914,-97.0507,-2.0,27.49,11111222 
TABS,ioos:station:wmo:42044:1,1998-10-15T09:30:00Z,26.1914,-97.0507,-2.0,27.5,11111222 
TABS,ioos:station:wmo:42044:1,1998-10-15T10:00:00Z,26.1914,-97.0507,-2.0,27.51,11111222 
TABS,ioos:station:wmo:42044:1,1998-10-15T10:30:00Z,26.1914,-97.0507,-2.0,27.53,11111222 
TABS,ioos:station:wmo:42044:1,1998-10-15T11:00:00Z,26.1914,-97.0507,-2.0,27.54,11111222 
TABS,ioos:station:wmo:42044:1,1998-10-15T11:30:00Z,26.1914,-97.0507,-2.0,27.57,11111222 
TABS,ioos:station:wmo:42044:1,1998-10-15T12:00:00Z,26.1914,-97.0507,-2.0,27.61,11111222 
TABS,ioos:station:wmo:42044:1,1998-10-15T12:30:00Z,26.1914,-97.0507,-2.0,27.64,11111222 
TABS,ioos:station:wmo:42044:1,1998-10-15T13:00:00Z,26.1914,-97.0507,-2.0,27.72,11111222 
TABS,ioos:station:wmo:42044:1,1998-10-15T13:30:00Z,26.1914,-97.0507,-2.0,27.73,11111222 
TABS,ioos:station:wmo:42044:1,1998-10-15T14:00:00Z,26.1914,-97.0507,-2.0,27.73,11111222 
TABS,ioos:station:wmo:42044:1,1998-10-15T14:30:00Z,26.1914,-97.0507,-2.0,27.66,11111222 
TABS,ioos:station:wmo:42044:1,1998-10-15T15:00:00Z,26.1914,-97.0507,-2.0,27.65,11111222 
TABS,ioos:station:wmo:42044:1,1998-10-15T15:30:00Z,26.1914,-97.0507,-2.0,27.64,11111222 
TABS,ioos:station:wmo:42044:1,1998-10-15T16:00:00Z,26.1914,-97.0507,-2.0,27.6,11111222 
TABS,ioos:station:wmo:42044:1,1998-10-15T16:30:00Z,26.1914,-97.0507,-2.0,27.58,11111222 
TABS,ioos:station:wmo:42044:1,1998-10-15T17:00:00Z,26.1914,-97.0507,-2.0,27.54,11111222 
TABS,ioos:station:wmo:42044:1,1998-10-15T17:30:00Z,26.1914,-97.0507,-2.0,27.53,11111222 
TABS,ioos:station:wmo:42044:1,1998-10-15T18:00:00Z,26.1914,-97.0507,-2.0,27.48,11111222 
TABS,ioos:station:wmo:42044:1,1998-10-15T18:30:00Z,26.1914,-97.0507,-2.0,27.42,11111222 
TABS,ioos:station:wmo:42044:1,1998-10-15T19:00:00Z,26.1914,-97.0507,-2.0,27.38,11111222 
TABS,ioos:station:wmo:42044:1,1998-10-15T19:30:00Z,26.1914,-97.0507,-2.0,27.35,11111222 
TABS,ioos:station:wmo:42044:1,1998-10-15T20:00:00Z,26.1914,-97.0507,-2.0,27.34,11111222 
TABS,ioos:station:wmo:42044:1,1998-10-15T21:30:00Z,26.1914,-97.0507,-2.0,27.29,11111222 
TABS,ioos:station:wmo:42044:1,1998-10-15T22:00:00Z,26.1914,-97.0507,-2.0,27.28,11111222 
TABS,ioos:station:wmo:42044:1,1998-10-15T23:30:00Z,26.1914,-97.0507,-2.0,27.32,11111222 
TABS,ioos:station:wmo:42044:1,1998-10-16T00:00:00Z,26.1914,-97.0507,-2.0,27.31,11111222 
TABS,ioos:station:wmo:42044:1,1998-10-16T01:30:00Z,26.1914,-97.0507,-2.0,27.3,11111222 
TABS,ioos:station:wmo:42044:1,1998-10-16T02:00:00Z,26.1914,-97.0507,-2.0,27.28,11111222 
TABS,ioos:station:wmo:42044:1,1998-10-16T02:30:00Z,26.1914,-97.0507,-2.0,27.28,11111222 
TABS,ioos:station:wmo:42044:1,1998-10-16T03:00:00Z,26.1914,-97.0507,-2.0,27.27,11111222 
TABS,ioos:station:wmo:42044:1,1998-10-16T03:30:00Z,26.1914,-97.0507,-2.0,27.28,11111222 
TABS,ioos:station:wmo:42044:1,1998-10-16T04:00:00Z,26.1914,-97.0507,-2.0,27.27,11111222 
TABS,ioos:station:wmo:42044:1,1998-10-16T04:30:00Z,26.1914,-97.0507,-2.0,27.27,11111222 
TABS,ioos:station:wmo:42044:1,1998-10-16T05:00:00Z,26.1914,-97.0507,-2.0,27.27,11111222 
TABS,ioos:station:wmo:42044:1,1998-10-16T05:30:00Z,26.1914,-97.0507,-2.0,27.25,11111222 
TABS,ioos:station:wmo:42044:1,1998-10-16T06:00:00Z,26.1914,-97.0507,-2.0,27.25,11111222 
TABS,ioos:station:wmo:42044:1,1998-10-16T06:30:00Z,26.1914,-97.0507,-2.0,27.24,11111222 
TABS,ioos:station:wmo:42044:1,1998-10-16T07:00:00Z,26.1914,-97.0507,-2.0,27.26,11111222 
TABS,ioos:station:wmo:42044:1,1998-10-16T07:30:00Z,26.1914,-97.0507,-2.0,27.28,11111222 
TABS,ioos:station:wmo:42044:1,1998-10-16T08:00:00Z,26.1914,-97.0507,-2.0,27.29,11111222 
TABS,ioos:station:wmo:42044:1,1998-10-16T08:30:00Z,26.1914,-97.0507,-2.0,27.32,11111222 
TABS,ioos:station:wmo:42044:1,1998-10-16T09:00:00Z,26.1914,-97.0507,-2.0,27.34,11111222 
TABS,ioos:station:wmo:42044:1,1998-10-16T09:30:00Z,26.1914,-97.0507,-2.0,27.38,11111222 
TABS,ioos:station:wmo:42044:1,1998-10-16T10:00:00Z,26.1914,-97.0507,-2.0,27.38,11111222 
TABS,ioos:station:wmo:42044:1,1998-10-16T10:30:00Z,26.1914,-97.0507,-2.0,27.37,11111222 
TABS,ioos:station:wmo:42044:1,1998-10-16T11:00:00Z,26.1914,-97.0507,-2.0,27.37,11111222 
TABS,ioos:station:wmo:42044:1,1998-10-16T12:30:00Z,26.1914,-97.0507,-2.0,27.54,11111222 
TABS,ioos:station:wmo:42044:1,1998-10-16T13:00:00Z,26.1914,-97.0507,-2.0,27.62,11111222 
TABS,ioos:station:wmo:42044:1,1998-10-16T13:30:00Z,26.1914,-97.0507,-2.0,27.62,11111222 
TABS,ioos:station:wmo:42044:1,1998-10-16T14:00:00Z,26.1914,-97.0507,-2.0,27.65,11111222 
TABS,ioos:station:wmo:42044:1,1998-10-16T14:30:00Z,26.1914,-97.0507,-2.0,27.68,11111222 
TABS,ioos:station:wmo:42044:1,1998-10-16T15:00:00Z,26.1914,-97.0507,-2.0,27.68,11111222 
TABS,ioos:station:wmo:42044:1,1998-10-16T15:30:00Z,26.1914,-97.0507,-2.0,27.68,11111222 
TABS,ioos:station:wmo:42044:1,1998-10-16T16:00:00Z,26.1914,-97.0507,-2.0,27.68,11111222 
TABS,ioos:station:wmo:42044:1,1998-10-16T16:30:00Z,26.1914,-97.0507,-2.0,27.62,11111222 
TABS,ioos:station:wmo:42044:1,1998-10-16T17:00:00Z,26.1914,-97.0507,-2.0,27.6,11111222 
TABS,ioos:station:wmo:42044:1,1998-10-16T17:30:00Z,26.1914,-97.0507,-2.0,27.65,11111222 
TABS,ioos:station:wmo:42044:1,1998-10-16T18:00:00Z,26.1914,-97.0507,-2.0,27.63,11111222 
TABS,ioos:station:wmo:42044:1,1998-10-16T18:30:00Z,26.1914,-97.0507,-2.0,27.63,11111222 
TABS,ioos:station:wmo:42044:1,1998-10-16T19:00:00Z,26.1914,-97.0507,-2.0,27.62,11111222 
TABS,ioos:station:wmo:42044:1,1998-10-16T19:30:00Z,26.1914,-97.0507,-2.0,27.61,11111222 
TABS,ioos:station:wmo:42044:1,1998-10-16T20:00:00Z,26.1914,-97.0507,-2.0,27.6,11111222 
TABS,ioos:station:wmo:42044:1,1998-10-16T20:30:00Z,26.1914,-97.0507,-2.0,27.58,11111222 
TABS,ioos:station:wmo:42044:1,1998-10-16T21:00:00Z,26.1914,-97.0507,-2.0,27.57,11111222 
TABS,ioos:station:wmo:42044:1,1998-10-16T21:30:00Z,26.1914,-97.0507,-2.0,27.55,11111222 
TABS,ioos:station:wmo:42044:1,1998-10-16T22:00:00Z,26.1914,-97.0507,-2.0,27.54,11111222 
TABS,ioos:station:wmo:42044:1,1998-10-16T23:30:00Z,26.1914,-97.0507,-2.0,27.51,11111222 
TABS,ioos:station:wmo:42044:1,1998-10-17T00:00:00Z,26.1914,-97.0507,-2.0,27.5,11111222 
TABS,ioos:station:wmo:42044:1,1998-10-17T00:30:00Z,26.1914,-97.0507,-2.0,27.49,11111222 
TABS,ioos:station:wmo:42044:1,1998-10-17T01:00:00Z,26.1914,-97.0507,-2.0,27.47,11111222 
TABS,ioos:station:wmo:42044:1,1998-10-17T01:30:00Z,26.1914,-97.0507,-2.0,27.47,11111222 
TABS,ioos:station:wmo:42044:1,1998-10-17T02:00:00Z,26.1914,-97.0507,-2.0,27.46,11111222 
TABS,ioos:station:wmo:42044:1,1998-10-17T02:30:00Z,26.1914,-97.0507,-2.0,27.46,11111222 
TABS,ioos:station:wmo:42044:1,1998-10-17T03:00:00Z,26.1914,-97.0507,-2.0,27.44,11111222 
TABS,ioos:station:wmo:42044:1,1998-10-17T03:30:00Z,26.1914,-97.0507,-2.0,27.44,11111222 
TABS,ioos:station:wmo:42044:1,1998-10-17T04:00:00Z,26.1914,-97.0507,-2.0,27.43,11111222 
TABS,ioos:station:wmo:42044:1,1998-10-17T04:30:00Z,26.1914,-97.0507,-2.0,27.42,11111222 
TABS,ioos:station:wmo:42044:1,1998-10-17T05:00:00Z,26.1914,-97.0507,-2.0,27.42,11111222 
TABS,ioos:station:wmo:42044:1,1998-10-17T05:30:00Z,26.1914,-97.0507,-2.0,27.4,11111222 
TABS,ioos:station:wmo:42044:1,1998-10-17T06:00:00Z,26.1914,-97.0507,-2.0,27.4,11111222 
TABS,ioos:station:wmo:42044:1,1998-10-17T06:30:00Z,26.1914,-97.0507,-2.0,27.43,11111222 
TABS,ioos:station:wmo:42044:1,1998-10-17T07:00:00Z,26.1914,-97.0507,-2.0,27.49,11111222 
TABS,ioos:station:wmo:42044:1,1998-10-17T07:30:00Z,26.1914,-97.0507,-2.0,27.49,11111222 
TABS,ioos:station:wmo:42044:1,1998-10-17T08:00:00Z,26.1914,-97.0507,-2.0,27.48,11111222 
TABS,ioos:station:wmo:42044:1,1998-10-17T08:30:00Z,26.1914,-97.0507,-2.0,27.48,11111222 
TABS,ioos:station:wmo:42044:1,1998-10-17T09:00:00Z,26.1914,-97.0507,-2.0,27.44,11111222 
TABS,ioos:station:wmo:42044:1,1998-10-17T10:30:00Z,26.1914,-97.0507,-2.0,27.41,11111222 
TABS,ioos:station:wmo:42044:1,1998-10-17T11:00:00Z,26.1914,-97.0507,-2.0,27.41,11111222 
TABS,ioos:station:wmo:42044:1,1998-10-17T11:30:00Z,26.1914,-97.0507,-2.0,27.42,11111222 
TABS,ioos:station:wmo:42044:1,1998-10-17T12:00:00Z,26.1914,-97.0507,-2.0,27.46,11111222 
TABS,ioos:station:wmo:42044:1,1998-10-17T12:30:00Z,26.1914,-97.0507,-2.0,27.47,11111222 
TABS,ioos:station:wmo:42044:1,1998-10-17T13:00:00Z,26.1914,-97.0507,-2.0,27.49,11111222 
TABS,ioos:station:wmo:42044:1,1998-10-17T13:30:00Z,26.1914,-97.0507,-2.0,27.53,11111222 
TABS,ioos:station:wmo:42044:1,1998-10-17T14:00:00Z,26.1914,-97.0507,-2.0,27.54,11111222 
TABS,ioos:station:wmo:42044:1,1998-10-17T14:30:00Z,26.1914,-97.0507,-2.0,27.63,11111222 
TABS,ioos:station:wmo:42044:1,1998-10-17T15:00:00Z,26.1914,-97.0507,-2.0,27.62,11111222 
TABS,ioos:station:wmo:42044:1,1998-10-17T15:30:00Z,26.1914,-97.0507,-2.0,27.64,11111222 
TABS,ioos:station:wmo:42044:1,1998-10-17T16:00:00Z,26.1914,-97.0507,-2.0,27.64,11111222 
TABS,ioos:station:wmo:42044:1,1998-10-17T16:30:00Z,26.1914,-97.0507,-2.0,27.64,11111222 
TABS,ioos:station:wmo:42044:1,1998-10-17T17:00:00Z,26.1914,-97.0507,-2.0,27.63,11111222 
TABS,ioos:station:wmo:42044:1,1998-10-17T17:30:00Z,26.1914,-97.0507,-2.0,27.62,11111222 
TABS,ioos:station:wmo:42044:1,1998-10-17T18:00:00Z,26.1914,-97.0507,-2.0,27.6,11111222 
TABS,ioos:station:wmo:42044:1,1998-10-17T18:30:00Z,26.1914,-97.0507,-2.0,27.6,11111222 
TABS,ioos:station:wmo:42044:1,1998-10-17T19:00:00Z,26.1914,-97.0507,-2.0,27.59,11111222 
TABS,ioos:station:wmo:42044:1,1998-10-17T19:30:00Z,26.1914,-97.0507,-2.0,27.58,11111222 
TABS,ioos:station:wmo:42044:1,1998-10-17T20:00:00Z,26.1914,-97.0507,-2.0,27.59,11111222 
TABS,ioos:station:wmo:42044:1,1998-10-17T20:30:00Z,26.1914,-97.0507,-2.0,27.59,11111222 
TABS,ioos:station:wmo:42044:1,1998-10-17T21:00:00Z,26.1914,-97.0507,-2.0,27.59,11111222 
TABS,ioos:station:wmo:42044:1,1998-10-17T21:30:00Z,26.1914,-97.0507,-2.0,27.58,11111222 
TABS,ioos:station:wmo:42044:1,1998-10-17T22:00:00Z,26.1914,-97.0507,-2.0,27.58,11111222 
TABS,ioos:station:wmo:42044:1,1998-10-17T23:30:00Z,26.1914,-97.0507,-2.0,27.58,11111222 
TABS,ioos:station:wmo:42044:1,1998-10-18T00:00:00Z,26.1914,-97.0507,-2.0,27.6,11111222 
TABS,ioos:station:wmo:42044:1,1998-10-18T00:30:00Z,26.1914,-97.0507,-2.0,27.59,11111222 
TABS,ioos:station:wmo:42044:1,1998-10-18T01:00:00Z,26.1914,-97.0507,-2.0,27.58,11111222 
TABS,ioos:station:wmo:42044:1,1998-10-18T01:30:00Z,26.1914,-97.0507,-2.0,27.57,11111222 
TABS,ioos:station:wmo:42044:1,1998-10-18T02:00:00Z,26.1914,-97.0507,-2.0,27.56,11111222 
TABS,ioos:station:wmo:42044:1,1998-10-18T02:30:00Z,26.1914,-97.0507,-2.0,27.55,11111222 
TABS,ioos:station:wmo:42044:1,1998-10-18T03:00:00Z,26.1914,-97.0507,-2.0,27.55,11111222 
TABS,ioos:station:wmo:42044:1,1998-10-18T03:30:00Z,26.1914,-97.0507,-2.0,27.54,11111222 
TABS,ioos:station:wmo:42044:1,1998-10-18T04:00:00Z,26.1914,-97.0507,-2.0,27.54,11111222 
TABS,ioos:station:wmo:42044:1,1998-10-18T04:30:00Z,26.1914,-97.0507,-2.0,27.54,11111222 
TABS,ioos:station:wmo:42044:1,1998-10-18T05:00:00Z,26.1914,-97.0507,-2.0,27.55,11111222 
TABS,ioos:station:wmo:42044:1,1998-10-18T05:30:00Z,26.1914,-97.0507,-2.0,27.54,11111222 
TABS,ioos:station:wmo:42044:1,1998-10-18T06:00:00Z,26.1914,-97.0507,-2.0,27.53,11111222 
TABS,ioos:station:wmo:42044:1,1998-10-18T06:30:00Z,26.1914,-97.0507,-2.0,27.52,11111222 
TABS,ioos:station:wmo:42044:1,1998-10-18T07:00:00Z,26.1914,-97.0507,-2.0,27.51,11111222 
TABS,ioos:station:wmo:42044:1,1998-10-18T07:30:00Z,26.1914,-97.0507,-2.0,27.51,11111222 
TABS,ioos:station:wmo:42044:1,1998-10-18T08:00:00Z,26.1914,-97.0507,-2.0,27.52,11111222 
TABS,ioos:station:wmo:42044:1,1998-10-18T08:30:00Z,26.1914,-97.0507,-2.0,27.52,11111222 
TABS,ioos:station:wmo:42044:1,1998-10-18T09:00:00Z,26.1914,-97.0507,-2.0,27.55,11111222 
TABS,ioos:station:wmo:42044:1,1998-10-18T09:30:00Z,26.1914,-97.0507,-2.0,27.6,11111222 
TABS,ioos:station:wmo:42044:1,1998-10-18T10:00:00Z,26.1914,-97.0507,-2.0,27.62,11111222 
TABS,ioos:station:wmo:42044:1,1998-10-18T10:30:00Z,26.1914,-97.0507,-2.0,27.66,11111222 
TABS,ioos:station:wmo:42044:1,1998-10-18T11:00:00Z,26.1914,-97.0507,-2.0,27.69,11111222 
TABS,ioos:station:wmo:42044:1,1998-10-18T11:30:00Z,26.1914,-97.0507,-2.0,27.74,11111222 
TABS,ioos:station:wmo:42044:1,1998-10-18T12:00:00Z,26.1914,-97.0507,-2.0,27.78,11111222 
TABS,ioos:station:wmo:42044:1,1998-10-18T12:30:00Z,26.1914,-97.0507,-2.0,27.83,11111222 
TABS,ioos:station:wmo:42044:1,1998-10-18T13:00:00Z,26.1914,-97.0507,-2.0,27.79,11111222 
TABS,ioos:station:wmo:42044:1,1998-10-18T13:30:00Z,26.1914,-97.0507,-2.0,27.8,11111222 
TABS,ioos:station:wmo:42044:1,1998-10-18T14:00:00Z,26.1914,-97.0507,-2.0,27.86,11111222 
TABS,ioos:station:wmo:42044:1,1998-10-18T14:30:00Z,26.1914,-97.0507,-2.0,27.85,11111222 
TABS,ioos:station:wmo:42044:1,1998-10-18T15:00:00Z,26.1914,-97.0507,-2.0,27.93,11111222 
TABS,ioos:station:wmo:42044:1,1998-10-18T15:30:00Z,26.1914,-97.0507,-2.0,27.92,11111222 
TABS,ioos:station:wmo:42044:1,1998-10-18T16:00:00Z,26.1914,-97.0507,-2.0,27.93,11111222 
TABS,ioos:station:wmo:42044:1,1998-10-18T16:30:00Z,26.1914,-97.0507,-2.0,27.93,11111222 
TABS,ioos:station:wmo:42044:1,1998-10-18T17:00:00Z,26.1914,-97.0507,-2.0,27.91,11111222 
TABS,ioos:station:wmo:42044:1,1998-10-18T17:30:00Z,26.1914,-97.0507,-2.0,27.9,11111222 
TABS,ioos:station:wmo:42044:1,1998-10-18T18:00:00Z,26.1914,-97.0507,-2.0,27.9,11111222 
TABS,ioos:station:wmo:42044:1,1998-10-18T18:30:00Z,26.1914,-97.0507,-2.0,27.87,11111222 
TABS,ioos:station:wmo:42044:1,1998-10-18T19:00:00Z,26.1914,-97.0507,-2.0,27.85,11111222 
TABS,ioos:station:wmo:42044:1,1998-10-18T19:30:00Z,26.1914,-97.0507,-2.0,27.85,11111222 
TABS,ioos:station:wmo:42044:1,1998-10-18T20:00:00Z,26.1914,-97.0507,-2.0,27.83,11111222 
TABS,ioos:station:wmo:42044:1,1998-10-18T20:30:00Z,26.1914,-97.0507,-2.0,27.8,11111222 
TABS,ioos:station:wmo:42044:1,1998-10-18T21:00:00Z,26.1914,-97.0507,-2.0,27.79,11111222 
TABS,ioos:station:wmo:42044:1,1998-10-18T21:30:00Z,26.1914,-97.0507,-2.0,27.86,11111222 
TABS,ioos:station:wmo:42044:1,1998-10-18T22:00:00Z,26.1914,-97.0507,-2.0,27.83,11111222 
TABS,ioos:station:wmo:42044:1,1998-10-18T23:30:00Z,26.1914,-97.0507,-2.0,27.77,11111222 
TABS,ioos:station:wmo:42044:1,1998-10-19T00:00:00Z,26.1914,-97.0507,-2.0,27.75,11111222 
TABS,ioos:station:wmo:42044:1,1998-10-19T00:30:00Z,26.1914,-97.0507,-2.0,27.74,11111222 
TABS,ioos:station:wmo:42044:1,1998-10-19T01:00:00Z,26.1914,-97.0507,-2.0,27.73,11111222 
TABS,ioos:station:wmo:42044:1,1998-10-19T01:30:00Z,26.1914,-97.0507,-2.0,27.72,11111222 
TABS,ioos:station:wmo:42044:1,1998-10-19T02:00:00Z,26.1914,-97.0507,-2.0,27.71,11111222 
TABS,ioos:station:wmo:42044:1,1998-10-19T02:30:00Z,26.1914,-97.0507,-2.0,27.7,11111222 
TABS,ioos:station:wmo:42044:1,1998-10-19T03:00:00Z,26.1914,-97.0507,-2.0,27.69,11111222 
TABS,ioos:station:wmo:42044:1,1998-10-19T03:30:00Z,26.1914,-97.0507,-2.0,27.68,11111222 
TABS,ioos:station:wmo:42044:1,1998-10-19T04:00:00Z,26.1914,-97.0507,-2.0,27.66,11111222 
TABS,ioos:station:wmo:42044:1,1998-10-19T05:30:00Z,26.1914,-97.0507,-2.0,27.66,11111222 
TABS,ioos:station:wmo:42044:1,1998-10-19T06:00:00Z,26.1914,-97.0507,-2.0,27.66,11111222 
TABS,ioos:station:wmo:42044:1,1998-10-19T06:30:00Z,26.1914,-97.0507,-2.0,27.64,11111222 
TABS,ioos:station:wmo:42044:1,1998-10-19T07:00:00Z,26.1914,-97.0507,-2.0,27.64,11111222 
TABS,ioos:station:wmo:42044:1,1998-10-19T07:30:00Z,26.1914,-97.0507,-2.0,27.64,11111222 
TABS,ioos:station:wmo:42044:1,1998-10-19T08:00:00Z,26.1914,-97.0507,-2.0,27.63,11111222 
TABS,ioos:station:wmo:42044:1,1998-10-19T08:30:00Z,26.1914,-97.0507,-2.0,27.63,11111222 
TABS,ioos:station:wmo:42044:1,1998-10-19T09:00:00Z,26.1914,-97.0507,-2.0,27.62,11111222 
TABS,ioos:station:wmo:42044:1,1998-10-19T09:30:00Z,26.1914,-97.0507,-2.0,27.62,11111222 
TABS,ioos:station:wmo:42044:1,1998-10-19T10:00:00Z,26.1914,-97.0507,-2.0,27.63,11111222 
TABS,ioos:station:wmo:42044:1,1998-10-19T10:30:00Z,26.1914,-97.0507,-2.0,27.64,11111222 
TABS,ioos:station:wmo:42044:1,1998-10-19T11:00:00Z,26.1914,-97.0507,-2.0,27.65,11111222 
TABS,ioos:station:wmo:42044:1,1998-10-19T11:30:00Z,26.1914,-97.0507,-2.0,27.65,11111222 
TABS,ioos:station:wmo:42044:1,1998-10-19T12:00:00Z,26.1914,-97.0507,-2.0,27.7,11111222 
TABS,ioos:station:wmo:42044:1,1998-10-19T12:30:00Z,26.1914,-97.0507,-2.0,27.72,11111222 
TABS,ioos:station:wmo:42044:1,1998-10-19T13:00:00Z,26.1914,-97.0507,-2.0,27.75,11111222 
TABS,ioos:station:wmo:42044:1,1998-10-19T13:30:00Z,26.1914,-97.0507,-2.0,27.76,11111222 
TABS,ioos:station:wmo:42044:1,1998-10-19T14:00:00Z,26.1914,-97.0507,-2.0,27.78,11111222 
TABS,ioos:station:wmo:42044:1,1998-10-19T14:30:00Z,26.1914,-97.0507,-2.0,27.74,11111222 
TABS,ioos:station:wmo:42044:1,1998-10-19T15:00:00Z,26.1914,-97.0507,-2.0,27.77,11111222 
TABS,ioos:station:wmo:42044:1,1998-10-19T15:30:00Z,26.1914,-97.0507,-2.0,27.75,11111222 
TABS,ioos:station:wmo:42044:1,1998-10-19T16:00:00Z,26.1914,-97.0507,-2.0,27.81,11111222 
TABS,ioos:station:wmo:42044:1,1998-10-19T16:30:00Z,26.1914,-97.0507,-2.0,27.81,11111222 
TABS,ioos:station:wmo:42044:1,1998-10-19T17:00:00Z,26.1914,-97.0507,-2.0,27.8,11111222 
TABS,ioos:station:wmo:42044:1,1998-10-19T17:30:00Z,26.1914,-97.0507,-2.0,27.76,11111222 
TABS,ioos:station:wmo:42044:1,1998-10-19T18:00:00Z,26.1914,-97.0507,-2.0,27.74,11111222 
TABS,ioos:station:wmo:42044:1,1998-10-19T18:30:00Z,26.1914,-97.0507,-2.0,27.7,11111222 
TABS,ioos:station:wmo:42044:1,1998-10-19T19:00:00Z,26.1914,-97.0507,-2.0,27.69,11111222 
TABS,ioos:station:wmo:42044:1,1998-10-19T19:30:00Z,26.1914,-97.0507,-2.0,27.64,11111222 
TABS,ioos:station:wmo:42044:1,1998-10-19T20:00:00Z,26.1914,-97.0507,-2.0,27.62,11111222 
TABS,ioos:station:wmo:42044:1,1998-10-19T20:30:00Z,26.1914,-97.0507,-2.0,27.59,11111222 
TABS,ioos:station:wmo:42044:1,1998-10-19T21:00:00Z,26.1914,-97.0507,-2.0,27.55,11111222 
TABS,ioos:station:wmo:42044:1,1998-10-19T21:30:00Z,26.1914,-97.0507,-2.0,27.56,11111222 
TABS,ioos:station:wmo:42044:1,1998-10-19T22:00:00Z,26.1914,-97.0507,-2.0,27.58,11111222 
TABS,ioos:station:wmo:42044:1,1998-10-19T23:30:00Z,26.1914,-97.0507,-2.0,27.53,11111222 
TABS,ioos:station:wmo:42044:1,1998-10-20T00:00:00Z,26.1914,-97.0507,-2.0,27.49,11111222 
TABS,ioos:station:wmo:42044:1,1998-10-20T00:30:00Z,26.1914,-97.0507,-2.0,27.46,11111222 
TABS,ioos:station:wmo:42044:1,1998-10-20T01:00:00Z,26.1914,-97.0507,-2.0,27.41,11111222 
TABS,ioos:station:wmo:42044:1,1998-10-20T01:30:00Z,26.1914,-97.0507,-2.0,27.41,11111222 
TABS,ioos:station:wmo:42044:1,1998-10-20T02:00:00Z,26.1914,-97.0507,-2.0,27.4,11111222 
TABS,ioos:station:wmo:42044:1,1998-10-20T02:30:00Z,26.1914,-97.0507,-2.0,27.38,11111222 
TABS,ioos:station:wmo:42044:1,1998-10-20T03:00:00Z,26.1914,-97.0507,-2.0,27.39,11111222 
TABS,ioos:station:wmo:42044:1,1998-10-20T03:30:00Z,26.1914,-97.0507,-2.0,27.37,11111222 
TABS,ioos:station:wmo:42044:1,1998-10-20T04:00:00Z,26.1914,-97.0507,-2.0,27.37,11111222 
TABS,ioos:station:wmo:42044:1,1998-10-20T04:30:00Z,26.1914,-97.0507,-2.0,27.37,11111222 
TABS,ioos:station:wmo:42044:1,1998-10-20T05:00:00Z,26.1914,-97.0507,-2.0,27.38,11111222 
TABS,ioos:station:wmo:42044:1,1998-10-20T05:30:00Z,26.1914,-97.0507,-2.0,27.37,11111222 
TABS,ioos:station:wmo:42044:1,1998-10-20T06:00:00Z,26.1914,-97.0507,-2.0,27.36,11111222 
TABS,ioos:station:wmo:42044:1,1998-10-20T06:30:00Z,26.1914,-97.0507,-2.0,27.35,11111222 
TABS,ioos:station:wmo:42044:1,1998-10-20T07:00:00Z,26.1914,-97.0507,-2.0,27.33,11111222 
TABS,ioos:station:wmo:42044:1,1998-10-20T07:30:00Z,26.1914,-97.0507,-2.0,27.32,11111222 
TABS,ioos:station:wmo:42044:1,1998-10-20T08:00:00Z,26.1914,-97.0507,-2.0,27.31,11111222 
TABS,ioos:station:wmo:42044:1,1998-10-20T08:30:00Z,26.1914,-97.0507,-2.0,27.3,11111222 
TABS,ioos:station:wmo:42044:1,1998-10-20T09:00:00Z,26.1914,-97.0507,-2.0,27.31,11111222 
TABS,ioos:station:wmo:42044:1,1998-10-20T09:30:00Z,26.1914,-97.0507,-2.0,27.25,11111222 
TABS,ioos:station:wmo:42044:1,1998-10-20T10:00:00Z,26.1914,-97.0507,-2.0,27.29,11111222 
TABS,ioos:station:wmo:42044:1,1998-10-20T10:30:00Z,26.1914,-97.0507,-2.0,27.34,11111222 
TABS,ioos:station:wmo:42044:1,1998-10-20T11:00:00Z,26.1914,-97.0507,-2.0,27.33,11111222 
TABS,ioos:station:wmo:42044:1,1998-10-20T11:30:00Z,26.1914,-97.0507,-2.0,27.35,11111222 
TABS,ioos:station:wmo:42044:1,1998-10-20T12:00:00Z,26.1914,-97.0507,-2.0,27.37,11111222 
TABS,ioos:station:wmo:42044:1,1998-10-20T12:30:00Z,26.1914,-97.0507,-2.0,27.4,11111222 
TABS,ioos:station:wmo:42044:1,1998-10-20T13:00:00Z,26.1914,-97.0507,-2.0,27.42,11111222 
TABS,ioos:station:wmo:42044:1,1998-10-20T13:30:00Z,26.1914,-97.0507,-2.0,27.47,11111222 
TABS,ioos:station:wmo:42044:1,1998-10-20T14:00:00Z,26.1914,-97.0507,-2.0,27.49,11111222 
TABS,ioos:station:wmo:42044:1,1998-10-20T14:30:00Z,26.1914,-97.0507,-2.0,27.46,11111222 
TABS,ioos:station:wmo:42044:1,1998-10-20T15:00:00Z,26.1914,-97.0507,-2.0,27.44,11111222 
TABS,ioos:station:wmo:42044:1,1998-10-20T15:30:00Z,26.1914,-97.0507,-2.0,27.47,11111222 
TABS,ioos:station:wmo:42044:1,1998-10-20T16:00:00Z,26.1914,-97.0507,-2.0,27.42,11111222 
TABS,ioos:station:wmo:42044:1,1998-10-20T16:30:00Z,26.1914,-97.0507,-2.0,27.4,11111222 
TABS,ioos:station:wmo:42044:1,1998-10-20T17:00:00Z,26.1914,-97.0507,-2.0,27.4,11111222 
TABS,ioos:station:wmo:42044:1,1998-10-20T17:30:00Z,26.1914,-97.0507,-2.0,27.41,11111222 
TABS,ioos:station:wmo:42044:1,1998-10-20T18:00:00Z,26.1914,-97.0507,-2.0,27.38,11111222 
TABS,ioos:station:wmo:42044:1,1998-10-20T18:30:00Z,26.1914,-97.0507,-2.0,27.36,11111222 
TABS,ioos:station:wmo:42044:1,1998-10-20T19:00:00Z,26.1914,-97.0507,-2.0,27.36,11111222 
TABS,ioos:station:wmo:42044:1,1998-10-20T19:30:00Z,26.1914,-97.0507,-2.0,27.37,11111222 
TABS,ioos:station:wmo:42044:1,1998-10-20T20:00:00Z,26.1914,-97.0507,-2.0,27.37,11111222 
TABS,ioos:station:wmo:42044:1,1998-10-20T20:30:00Z,26.1914,-97.0507,-2.0,27.4,11111222 
TABS,ioos:station:wmo:42044:1,1998-10-20T21:00:00Z,26.1914,-97.0507,-2.0,27.39,11111222 
TABS,ioos:station:wmo:42044:1,1998-10-20T21:30:00Z,26.1914,-97.0507,-2.0,27.38,11111222 
TABS,ioos:station:wmo:42044:1,1998-10-20T22:00:00Z,26.1914,-97.0507,-2.0,27.37,11111222 
TABS,ioos:station:wmo:42044:1,1998-10-20T23:30:00Z,26.1914,-97.0507,-2.0,27.38,11111222 
TABS,ioos:station:wmo:42044:1,1998-10-21T00:00:00Z,26.1914,-97.0507,-2.0,27.39,11111222 
TABS,ioos:station:wmo:42044:1,1998-10-21T00:30:00Z,26.1914,-97.0507,-2.0,27.39,11111222 
TABS,ioos:station:wmo:42044:1,1998-10-21T01:00:00Z,26.1914,-97.0507,-2.0,27.39,11111222 
TABS,ioos:station:wmo:42044:1,1998-10-21T01:30:00Z,26.1914,-97.0507,-2.0,27.4,11111222 